Weather Roundup
Issued by NWS

Home | Current Version | Previous Version | Text Only | Print | Product List | Glossary On
Versions: 1 2 3 4 5 6 7 8 9 10 11 12 13 14 15 16 17 18 19 20 21 22 23 24 25 26 27 28 29 30 31 32 33 34 35 36 37 38 39 40 41 42 43 44 45 46 47 48 49 50
000
NZUS93 KARX 272110
HRRWXR

CURRENT HOURLY OBSERVATIONS ACROSS
MUCH OF THE UPPER MISSISSIPPI VALLEY
NATIONAL WEATHER SERVICE LA CROSSE WI
400 PM CDT MON MAR 27 2017


...SOUTHEAST MINNESOTA...


CITY           SKY/WX    TMP DP  RH WIND       PRES   REMARKS
ROCHESTER      CLOUDY    44  40  85 N7        29.95F
ROCHESTER/MAYO CLOUDY    45  39  82 N3        29.95F
WINONA         CLOUDY    46  37  71 NE5       29.97S
AUSTIN         CLOUDY    46  39  76 NE7       29.94F
ALBERT LEA     CLOUDY    46  39  76 NE7       29.95F
DODGE CENTER   CLOUDY    45  39  81 N7        29.95F
PRESTON        CLOUDY    46  39  77 N6        29.94F
OWATONNA       CLOUDY    50  37  62 NE5       29.95S
FARIBAULT      CLOUDY    52  39  62 E3        29.95S
$$

...ELSEWHERE IN MINNESOTA...


CITY           SKY/WX    TMP DP  RH WIND       PRES   REMARKS
MINNEAPOLIS    PTSUNNY   59  31  34 NE8       29.94F
INTNL FALLS    SUNNY     53  27  36 NE7       29.97S
DULUTH         CLOUDY    51  34  52 CALM      29.95F
RED WING       CLOUDY    50  37  62 NE5       29.95F
REDWOOD FALLS  SUNNY     57  36  45 E6        29.94F
MANKATO        CLOUDY    52  38  58 E5        29.96S
WORTHINGTON    PTSUNNY   50  38  63 NE8       29.96F
FAIRMONT       CLOUDY    49  41  74 NE6       29.97S
$$

...SOUTHWEST WISCONSIN...


CITY           SKY/WX    TMP DP  RH WIND       PRES   REMARKS
LA CROSSE      CLOUDY    49  41  74 NW8       29.95R
PRAIRIE DU CHI CLOUDY    46  45  94 CALM      29.94S FOG
BOSCOBEL       CLOUDY    51  43  74 E3        29.94S
LONE ROCK      CLOUDY    49  42  77 NW3       29.94S
PLATTEVILLE    CLOUDY    48  46  91 N3        29.93S
FORT MC COY    CLOUDY    46  41  84 N8        29.95S
CAMP DOUGLAS   CLOUDY    48  43  81 N5        29.94R
MAUSTON-NEW LI CLOUDY    48  43  82 N3        29.93R HAZE
VIROQUA        CLOUDY    46  43  88 N3        29.93S
WIS DELLS      CLOUDY    47  42  82 CALM      29.93R
$$

...ELSEWHERE IN WISCONSIN...


CITY           SKY/WX    TMP DP  RH WIND       PRES   REMARKS
MILWAUKEE      CLOUDY    45  38  76 E5        29.94S
MADISON        CLOUDY    48  42  80 CALM      29.92F
GREEN BAY      CLOUDY    42  37  82 NE9       29.96R
EAU CLAIRE     CLOUDY    46  37  71 E6        29.95F
BLACK RVR FLS  CLOUDY    47  37  69 CALM      29.95S
MEDFORD        CLOUDY    40  37  87 NE5       29.94S
WAUSAU         CLOUDY    42  37  82 CALM      29.93S
WIS RAPIDS     CLOUDY    44  40  85 N8        29.96R
MARSHFIELD     CLOUDY    42  36  79 N7        29.94S
RICE LAKE      CLOUDY    54  33  45 CALM      29.95F
$$

...NORTHEAST IOWA...


CITY           SKY/WX    TMP DP  RH WIND       PRES   REMARKS
WATERLOO       CLOUDY    51  41  68 VRB5      29.93F
DUBUQUE        CLOUDY    49  44  83 N6        29.92S
DECORAH        CLOUDY    46  43  87 NW8       29.93S
MASON CITY     CLOUDY    47  39  74 N7        29.96S
CHARLES CITY   CLOUDY    48  45  87 N6        29.95S
OELWEIN        CLOUDY    50  45  81 CALM      29.93S
$$

...ELSEWHERE IN IOWA...


CITY           SKY/WX    TMP DP  RH WIND       PRES   REMARKS
DES MOINES     CLOUDY    51  42  71 N6        29.95S
IOWA CITY      CLOUDY    52  45  77 N7        29.93S
FORT DODGE     CLOUDY    48  39  71 N8        29.96F
MARSHALLTOWN   CLOUDY    48  43  82 N6        29.94S
CEDAR RAPIDS   CLOUDY    50  46  86 N8        29.91F
$$

...NORTHERN ILLINOIS...


CITY           SKY/WX    TMP DP  RH WIND       PRES   REMARKS
CHICAGO-OHARE  LGT RAIN  49  42  77 NE7       29.91R
CHICAGO-MIDWAY CLOUDY    48  44  86 E6        29.91S
MOLINE         CLOUDY    53  46  77 N5        29.90S
ROCKFORD       CLOUDY    52  44  74 CALM      29.93F
PEORIA         CLOUDY    56  53  90 NE6       29.87S
$$

NOTE: "FAIR" INDICATES FEW OR NO CLOUDS BELOW 12,000 FEET WITH NO
SIGNIFICANT WEATHER AND/OR OBSTRUCTIONS TO VISIBILITY. WIND
SPEEDS ARE IN MILES-PER-HOUR.




USA.gov is the U.S. government's official web portal to all federal, state and local government web resources and services.